Location: *
(46.1333°S, 161.2167°W)
Time: 04:07:35
(UTC+00:00)

NOSS 3-1 (A) - Pass Details

Date: 15 July 2020
Orbit: 755 x 1458 km, 63.4° (Epoch: 16 June)

Event Time Altitude Azimuth Distance (km) Brightness Sun altitude
Exits shadow 15:47:29 63° 230° (SW) 1,017 3.3 -26.1°
Maximum altitude 15:48:31 84° 305° (NW) 909 3.2 -25.9°
Drops below altitude 10° 15:54:02 10° 34° (NNE) 2,401 6.0 -24.9°
Sets 15:56:18 0° 34° (NE) 3,276 6.8 -24.5°
